Time,TemperatureF,DewpointF,PressureIn,WindDirection,WindDirectionDegrees,WindSpeedMPH,WindSpeedGustMPH,Humidity,HourlyPrecipIn,Conditions,Clouds,dailyrainin,SoftwareType,DateUTC
2013-02-07 00:02:00,38.0,34.0,-100.00,SE,130,9.0,15.0,84,-99.99,,,-99.99,,2013-02-07 06:02:00,
2013-02-07 00:11:00,38.0,34.0,-100.00,ESE,120,9.0,16.0,86,-99.99,,,-99.99,,2013-02-07 06:11:00,
2013-02-07 00:22:00,38.0,34.0,-100.00,SE,130,7.0,11.0,84,-99.99,,,-99.99,,2013-02-07 06:22:00,
2013-02-07 00:32:00,38.0,34.0,-100.00,SE,130,7.0,11.0,84,-99.99,,,-99.99,,2013-02-07 06:32:00,
2013-02-07 00:43:00,38.0,34.0,-100.00,ESE,115,7.0,14.0,84,-99.99,,,-99.99,,2013-02-07 06:43:00,
2013-02-07 00:52:00,38.0,33.0,-100.00,ESE,120,7.0,12.0,82,-99.99,,,-99.99,,2013-02-07 06:52:00,
2013-02-07 01:01:00,38.0,33.0,-100.00,ESE,120,7.0,12.0,82,-99.99,,,-99.99,,2013-02-07 07:01:00,
2013-02-07 01:11:00,38.0,34.0,-100.00,ESE,120,6.0,11.0,84,-99.99,,,-99.99,,2013-02-07 07:11:00,
2013-02-07 01:22:00,38.0,34.0,-100.00,ESE,120,7.0,11.0,87,-99.99,,,-99.99,,2013-02-07 07:22:00,
2013-02-07 01:32:00,38.0,34.0,-100.00,ESE,120,8.0,11.0,86,-99.99,,,-99.99,,2013-02-07 07:32:00,
2013-02-07 01:42:00,38.0,34.0,-100.00,ESE,120,8.0,11.0,86,-99.99,,,-99.99,,2013-02-07 07:42:00,
2013-02-07 01:52:00,38.0,34.0,-100.00,SE,125,6.0,10.0,87,-99.99,,,-99.99,,2013-02-07 07:52:00,
2013-02-07 02:01:00,38.0,34.0,-100.00,SE,125,6.0,10.0,87,-99.99,,,-99.99,,2013-02-07 08:01:00,
2013-02-07 02:11:00,37.0,34.0,-100.00,SE,130,6.0,8.0,89,-99.99,,,-99.99,,2013-02-07 08:11:00,
2013-02-07 02:21:00,37.0,35.0,-100.00,ESE,110,7.0,11.0,91,-99.99,,,-99.99,,2013-02-07 08:21:00,
2013-02-07 02:32:00,37.0,35.0,-100.00,ESE,110,7.0,11.0,91,-99.99,,,-99.99,,2013-02-07 08:32:00,
2013-02-07 02:42:00,37.0,35.0,-100.00,SE,125,6.0,11.0,91,-99.99,,,-99.99,,2013-02-07 08:42:00,
2013-02-07 02:52:00,38.0,35.0,-100.00,SE,130,7.0,11.0,89,-99.99,,,-99.99,,2013-02-07 08:52:00,
2013-02-07 03:00:00,37.0,35.0,-100.00,SE,135,2.0,9.0,90,-99.99,,,-99.99,,2013-02-07 09:00:00,
2013-02-07 03:02:00,38.0,35.0,-100.00,SE,130,7.0,11.0,89,-99.99,,,-99.99,,2013-02-07 09:02:00,
2013-02-07 03:11:00,38.0,35.0,-100.00,ESE,115,6.0,10.0,89,-99.99,,,-99.99,,2013-02-07 09:11:00,
2013-02-07 03:21:00,38.0,35.0,-100.00,ESE,120,9.0,12.0,89,-99.99,,,-99.99,,2013-02-07 09:21:00,
2013-02-07 03:32:00,38.0,35.0,-100.00,ESE,120,9.0,12.0,89,-99.99,,,-99.99,,2013-02-07 09:32:00,
2013-02-07 03:41:00,37.0,35.0,-100.00,SE,135,2.0,9.0,90,-99.99,,,-99.99,,2013-02-07 09:41:00,
2013-02-07 03:52:00,37.0,35.0,-100.00,SE,135,2.0,9.0,90,-99.99,,,-99.99,,2013-02-07 09:52:00,
2013-02-07 04:11:00,37.0,36.0,-100.00,ESE,120,6.0,9.0,94,-99.99,,,-99.99,,2013-02-07 10:11:00,
2013-02-07 04:22:00,37.0,36.0,-100.00,SE,145,3.0,10.0,94,-99.99,,,-99.99,,2013-02-07 10:22:00,
2013-02-07 04:32:00,37.0,36.0,-100.00,SE,145,3.0,10.0,94,-99.99,,,-99.99,,2013-02-07 10:32:00,
2013-02-07 04:42:00,37.0,36.0,-100.00,SE,130,4.0,7.0,95,-99.99,,,-99.99,,2013-02-07 10:42:00,
2013-02-07 04:52:00,37.0,36.0,-100.00,ESE,120,4.0,5.0,96,-99.99,,,-99.99,,2013-02-07 10:52:00,
2013-02-07 05:01:00,37.0,36.0,-100.00,ESE,120,4.0,5.0,96,-99.99,,,-99.99,,2013-02-07 11:01:00,
2013-02-07 05:11:00,37.0,36.0,-100.00,ESE,110,0.0,2.0,96,-99.99,,,-99.99,,2013-02-07 11:11:00,
2013-02-07 05:23:00,37.0,36.0,-100.00,ESE,105,1.0,4.0,97,-99.99,,,-99.99,,2013-02-07 11:23:00,
2013-02-07 05:32:00,37.0,36.0,-100.00,ESE,105,1.0,4.0,97,-99.99,,,-99.99,,2013-02-07 11:32:00,
2013-02-07 05:44:00,37.0,36.0,-100.00,ESE,105,1.0,4.0,97,-99.99,,,-99.99,,2013-02-07 11:44:00,
2013-02-07 05:53:00,36.0,36.0,-100.00,ESE,110,4.0,6.0,98,-99.99,,,-99.99,,2013-02-07 11:53:00,
2013-02-07 06:02:00,36.0,36.0,-100.00,ESE,110,4.0,6.0,98,-99.99,,,-99.99,,2013-02-07 12:02:00,
2013-02-07 06:11:00,36.0,36.0,-100.00,ESE,115,1.0,6.0,97,-99.99,,,-99.99,,2013-02-07 12:11:00,
2013-02-07 06:22:00,36.0,36.0,-100.00,East,85,2.0,8.0,98,-99.99,,,-99.99,,2013-02-07 12:22:00,
2013-02-07 06:32:00,36.0,36.0,-100.00,East,85,2.0,8.0,98,-99.99,,,-99.99,,2013-02-07 12:32:00,
2013-02-07 06:42:00,36.0,36.0,-100.00,ESE,105,4.0,9.0,97,-99.99,,,-99.99,,2013-02-07 12:42:00,
2013-02-07 06:53:00,37.0,36.0,-100.00,SE,125,1.0,5.0,97,-99.99,,,-99.99,,2013-02-07 12:53:00,
2013-02-07 07:03:00,37.0,36.0,-100.00,SE,125,1.0,5.0,97,-99.99,,,-99.99,,2013-02-07 13:03:00,
2013-02-07 07:12:00,37.0,36.0,-100.00,ESE,115,1.0,4.0,96,-99.99,,,-99.99,,2013-02-07 13:12:00,
2013-02-07 07:22:00,36.0,36.0,-100.00,ESE,105,1.0,5.0,97,-99.99,,,-99.99,,2013-02-07 13:22:00,
2013-02-07 07:32:00,36.0,36.0,-100.00,ESE,105,1.0,5.0,97,-99.99,,,-99.99,,2013-02-07 13:32:00,
2013-02-07 07:42:00,36.0,36.0,-100.00,ESE,105,1.0,5.0,97,-99.99,,,-99.99,,2013-02-07 13:42:00,
2013-02-07 07:52:00,36.0,35.0,-100.00,ENE,65,0.0,3.0,97,-99.99,,,-99.99,,2013-02-07 13:52:00,
2013-02-07 08:01:00,36.0,35.0,-100.00,ENE,65,0.0,3.0,97,-99.99,,,-99.99,,2013-02-07 14:01:00,
2013-02-07 08:11:00,36.0,36.0,-100.00,East,80,0.0,2.0,98,-99.99,,,-99.99,,2013-02-07 14:11:00,
2013-02-07 08:22:00,36.0,36.0,-100.00,East,80,1.0,2.0,98,-99.99,,,-99.99,,2013-02-07 14:22:00,
2013-02-07 08:32:00,36.0,36.0,-100.00,East,80,1.0,2.0,98,-99.99,,,-99.99,,2013-02-07 14:32:00,
2013-02-07 08:42:00,36.0,35.0,-100.00,East,80,0.0,1.0,98,-99.99,,,-99.99,,2013-02-07 14:42:00,
2013-02-07 08:52:00,36.0,36.0,-100.00,NE,55,1.0,1.0,98,-99.99,,,-99.99,,2013-02-07 14:52:00,
2013-02-07 09:02:00,36.0,36.0,-100.00,NE,55,1.0,1.0,98,-99.99,,,-99.99,,2013-02-07 15:02:00,
2013-02-07 09:11:00,36.0,36.0,-100.00,NE,50,1.0,1.0,98,-99.99,,,-99.99,,2013-02-07 15:11:00,
2013-02-07 09:22:00,36.0,36.0,-100.00,NE,55,1.0,4.0,98,-99.99,,,-99.99,,2013-02-07 15:22:00,
2013-02-07 09:32:00,36.0,36.0,-100.00,NE,55,1.0,4.0,98,-99.99,,,-99.99,,2013-02-07 15:32:00,
2013-02-07 09:42:00,36.0,36.0,-100.00,NE,55,1.0,4.0,99,-99.99,,,-99.99,,2013-02-07 15:42:00,
2013-02-07 09:52:00,36.0,36.0,-100.00,ENE,65,1.0,4.0,99,-99.99,,,-99.99,,2013-02-07 15:52:00,
2013-02-07 10:01:00,36.0,36.0,-100.00,ENE,65,1.0,4.0,99,-99.99,,,-99.99,,2013-02-07 16:01:00,
2013-02-07 10:11:00,36.0,36.0,-100.00,East,80,1.0,4.0,99,-99.99,,,-99.99,,2013-02-07 16:11:00,
2013-02-07 10:21:00,36.0,36.0,-100.00,ENE,65,0.0,1.0,99,-99.99,,,-99.99,,2013-02-07 16:21:00,
2013-02-07 10:32:00,36.0,36.0,-100.00,East,85,1.0,2.0,99,-99.99,,,-99.99,,2013-02-07 16:32:00,
2013-02-07 10:42:00,36.0,36.0,-100.00,East,85,1.0,2.0,99,-99.99,,,-99.99,,2013-02-07 16:42:00,
2013-02-07 10:52:00,36.0,36.0,-100.00,East,90,1.0,4.0,99,-99.99,,,-99.99,,2013-02-07 16:52:00,
2013-02-07 11:01:00,36.0,36.0,-100.00,East,90,1.0,4.0,99,-99.99,,,-99.99,,2013-02-07 17:01:00,
2013-02-07 11:11:00,36.0,36.0,-100.00,East,95,0.0,1.0,99,-99.99,,,-99.99,,2013-02-07 17:11:00,
2013-02-07 11:21:00,37.0,36.0,-100.00,East,90,1.0,3.0,99,-99.99,,,-99.99,,2013-02-07 17:21:00,
2013-02-07 11:32:00,37.0,36.0,-100.00,East,90,1.0,3.0,99,-99.99,,,-99.99,,2013-02-07 17:32:00,
2013-02-07 11:43:00,37.0,37.0,-100.00,East,95,0.0,2.0,99,-99.99,,,-99.99,,2013-02-07 17:43:00,
2013-02-07 11:52:00,36.0,36.0,-100.00,East,100,1.0,2.0,99,-99.99,,,-99.99,,2013-02-07 17:52:00,
2013-02-07 12:01:00,36.0,36.0,-100.00,East,100,1.0,2.0,99,-99.99,,,-99.99,,2013-02-07 18:01:00,
2013-02-07 12:11:00,37.0,37.0,-100.00,East,95,0.0,1.0,99,-99.99,,,-99.99,,2013-02-07 18:11:00,
2013-02-07 12:23:00,37.0,37.0,-100.00,East,95,0.0,1.0,99,-99.99,,,-99.99,,2013-02-07 18:23:00,
2013-02-07 12:32:00,37.0,37.0,-100.00,East,95,0.0,1.0,99,-99.99,,,-99.99,,2013-02-07 18:32:00,
2013-02-07 12:42:00,37.0,37.0,-100.00,East,95,0.0,1.0,99,-99.99,,,-99.99,,2013-02-07 18:42:00,
2013-02-07 12:52:00,37.0,37.0,-100.00,East,100,0.0,1.0,99,-99.99,,,-99.99,,2013-02-07 18:52:00,
2013-02-07 13:01:00,37.0,37.0,-100.00,East,100,0.0,1.0,99,-99.99,,,-99.99,,2013-02-07 19:01:00,
2013-02-07 13:11:00,37.0,37.0,-100.00,East,100,0.0,1.0,99,-99.99,,,-99.99,,2013-02-07 19:11:00,
2013-02-07 13:22:00,37.0,37.0,-100.00,East,95,0.0,1.0,99,-99.99,,,-99.99,,2013-02-07 19:22:00,
2013-02-07 13:32:00,37.0,37.0,-100.00,East,95,0.0,1.0,99,-99.99,,,-99.99,,2013-02-07 19:32:00,
2013-02-07 13:42:00,37.0,37.0,-100.00,East,95,0.0,0.0,99,-99.99,,,-99.99,,2013-02-07 19:42:00,
2013-02-07 13:52:00,37.0,37.0,-100.00,East,100,0.0,1.0,99,-99.99,,,-99.99,,2013-02-07 19:52:00,
2013-02-07 14:01:00,37.0,37.0,-100.00,East,100,0.0,1.0,99,-99.99,,,-99.99,,2013-02-07 20:01:00,
2013-02-07 14:11:00,37.0,37.0,-100.00,East,100,0.0,0.0,99,-99.99,,,-99.99,,2013-02-07 20:11:00,
2013-02-07 14:22:00,37.0,37.0,-100.00,East,100,0.0,0.0,99,-99.99,,,-99.99,,2013-02-07 20:22:00,
2013-02-07 14:32:00,38.0,37.0,-100.00,East,100,0.0,0.0,99,-99.99,,,-99.99,,2013-02-07 20:32:00,
2013-02-07 14:42:00,38.0,37.0,-100.00,East,100,0.0,0.0,99,-99.99,,,-99.99,,2013-02-07 20:42:00,
2013-02-07 14:52:00,38.0,38.0,-100.00,West,275,0.0,4.0,99,-99.99,,,-99.99,,2013-02-07 20:52:00,
2013-02-07 15:02:00,38.0,38.0,-100.00,West,275,0.0,4.0,99,-99.99,,,-99.99,,2013-02-07 21:02:00,
2013-02-07 15:11:00,38.0,38.0,-100.00,West,275,0.0,0.0,99,-99.99,,,-99.99,,2013-02-07 21:11:00,
2013-02-07 15:21:00,38.0,38.0,-100.00,WNW,285,0.0,0.0,99,-99.99,,,-99.99,,2013-02-07 21:21:00,
2013-02-07 15:32:00,38.0,38.0,-100.00,WNW,285,0.0,0.0,99,-99.99,,,-99.99,,2013-02-07 21:32:00,
2013-02-07 15:42:00,38.0,38.0,-100.00,WNW,285,1.0,2.0,99,-99.99,,,-99.99,,2013-02-07 21:42:00,
2013-02-07 15:52:00,38.0,38.0,-100.00,NW,310,4.0,6.0,98,-99.99,,,-99.99,,2013-02-07 21:52:00,
2013-02-07 16:02:00,38.0,38.0,-100.00,NW,310,4.0,6.0,98,-99.99,,,-99.99,,2013-02-07 22:02:00,
2013-02-07 16:11:00,38.0,38.0,-100.00,WNW,285,4.0,8.0,98,-99.99,,,-99.99,,2013-02-07 22:11:00,
2013-02-07 16:21:00,38.0,37.0,-100.00,WNW,285,4.0,8.0,98,-99.99,,,-99.99,,2013-02-07 22:21:00,
2013-02-07 16:32:00,38.0,37.0,-100.00,WNW,285,4.0,8.0,98,-99.99,,,-99.99,,2013-02-07 22:32:00,
2013-02-07 16:42:00,38.0,37.0,-100.00,NW,315,6.0,11.0,98,-99.99,,,-99.99,,2013-02-07 22:42:00,
2013-02-07 16:52:00,37.0,37.0,-100.00,NW,325,4.0,12.0,98,-99.99,,,-99.99,,2013-02-07 22:52:00,
2013-02-07 17:01:00,37.0,37.0,-100.00,NW,325,4.0,12.0,98,-99.99,,,-99.99,,2013-02-07 23:01:00,
2013-02-07 17:11:00,37.0,37.0,-100.00,NNW,340,2.0,8.0,98,-99.99,,,-99.99,,2013-02-07 23:11:00,
2013-02-07 17:21:00,36.0,36.0,-100.00,NW,305,5.0,10.0,97,-99.99,,,-99.99,,2013-02-07 23:21:00,
2013-02-07 17:32:00,36.0,36.0,-100.00,NW,305,5.0,10.0,97,-99.99,,,-99.99,,2013-02-07 23:32:00,
2013-02-07 17:42:00,36.0,36.0,-100.00,NW,305,4.0,9.0,97,-99.99,,,-99.99,,2013-02-07 23:42:00,
2013-02-07 17:52:00,36.0,35.0,-100.00,WNW,295,4.0,8.0,97,-99.99,,,-99.99,,2013-02-07 23:52:00,
2013-02-07 18:01:00,36.0,35.0,-100.00,WNW,295,4.0,8.0,97,-99.99,,,-99.99,,2013-02-08 00:01:00,
2013-02-07 18:11:00,36.0,36.0,-100.00,West,265,3.0,9.0,97,-99.99,,,-99.99,,2013-02-08 00:11:00,
2013-02-07 18:21:00,36.0,35.0,-100.00,NW,310,4.0,15.0,97,-99.99,,,-99.99,,2013-02-08 00:21:00,
2013-02-07 18:32:00,36.0,35.0,-100.00,NW,310,4.0,15.0,97,-99.99,,,-99.99,,2013-02-08 00:32:00,
2013-02-07 18:42:00,36.0,35.0,-100.00,NW,315,6.0,11.0,97,-99.99,,,-99.99,,2013-02-08 00:42:00,
2013-02-07 18:52:00,36.0,35.0,-100.00,NW,315,4.0,10.0,97,-99.99,,,-99.99,,2013-02-08 00:52:00,
2013-02-07 19:01:00,36.0,35.0,-100.00,NW,315,4.0,10.0,97,-99.99,,,-99.99,,2013-02-08 01:01:00,
2013-02-07 19:11:00,36.0,35.0,-100.00,NW,315,6.0,14.0,96,-99.99,,,-99.99,,2013-02-08 01:11:00,
2013-02-07 19:21:00,36.0,35.0,-100.00,NW,310,8.0,14.0,96,-99.99,,,-99.99,,2013-02-08 01:21:00,
2013-02-07 19:31:00,36.0,35.0,-100.00,NW,310,8.0,14.0,96,-99.99,,,-99.99,,2013-02-08 01:31:00,
2013-02-07 19:41:00,36.0,35.0,-100.00,NW,305,7.0,13.0,96,-99.99,,,-99.99,,2013-02-08 01:41:00,
2013-02-07 19:52:00,36.0,34.0,-100.00,NW,305,8.0,14.0,95,-99.99,,,-99.99,,2013-02-08 01:52:00,
2013-02-07 20:01:00,36.0,34.0,-100.00,NW,305,8.0,14.0,95,-99.99,,,-99.99,,2013-02-08 02:01:00,
2013-02-07 20:11:00,36.0,34.0,-100.00,NW,310,9.0,18.0,94,-99.99,,,-99.99,,2013-02-08 02:11:00,
2013-02-07 20:21:00,36.0,34.0,-100.00,NW,315,7.0,15.0,93,-99.99,,,-99.99,,2013-02-08 02:21:00,
2013-02-07 20:32:00,36.0,34.0,-100.00,NW,315,7.0,15.0,93,-99.99,,,-99.99,,2013-02-08 02:32:00,
2013-02-07 20:42:00,35.0,34.0,-100.00,NW,315,4.0,9.0,94,-99.99,,,-99.99,,2013-02-08 02:42:00,
2013-02-07 20:52:00,35.0,34.0,-100.00,WNW,300,6.0,14.0,94,-99.99,,,-99.99,,2013-02-08 02:52:00,
2013-02-07 21:02:00,35.0,34.0,-100.00,WNW,300,6.0,14.0,94,-99.99,,,-99.99,,2013-02-08 03:02:00,
2013-02-07 21:12:00,35.0,33.0,-100.00,NW,305,6.0,11.0,94,-99.99,,,-99.99,,2013-02-08 03:12:00,
2013-02-07 21:22:00,35.0,33.0,-100.00,WNW,285,4.0,11.0,95,-99.99,,,-99.99,,2013-02-08 03:22:00,
2013-02-07 21:32:00,35.0,33.0,-100.00,WNW,285,4.0,11.0,95,-99.99,,,-99.99,,2013-02-08 03:32:00,
2013-02-07 21:41:00,34.0,33.0,-100.00,WNW,285,3.0,11.0,95,-99.99,,,-99.99,,2013-02-08 03:41:00,
2013-02-07 21:52:00,34.0,33.0,-100.00,NW,315,5.0,13.0,95,-99.99,,,-99.99,,2013-02-08 03:52:00,
2013-02-07 22:02:00,34.0,33.0,-100.00,NW,315,5.0,13.0,95,-99.99,,,-99.99,,2013-02-08 04:02:00,
2013-02-07 22:11:00,34.0,32.0,-100.00,NW,305,6.0,11.0,92,-99.99,,,-99.99,,2013-02-08 04:11:00,
2013-02-07 22:21:00,34.0,31.0,-100.00,NW,310,5.0,13.0,91,-99.99,,,-99.99,,2013-02-08 04:21:00,
2013-02-07 22:32:00,34.0,31.0,-100.00,NW,310,5.0,13.0,91,-99.99,,,-99.99,,2013-02-08 04:32:00,
2013-02-07 22:42:00,33.0,31.0,-100.00,NNW,330,5.0,13.0,92,-99.99,,,-99.99,,2013-02-08 04:42:00,
2013-02-07 22:52:00,33.0,31.0,-100.00,NW,305,6.0,13.0,92,-99.99,,,-99.99,,2013-02-08 04:52:00,
2013-02-07 23:02:00,33.0,31.0,-100.00,NW,305,6.0,13.0,92,-99.99,,,-99.99,,2013-02-08 05:02:00,
2013-02-07 23:11:00,33.0,30.0,-100.00,NW,315,9.0,18.0,89,-99.99,,,-99.99,,2013-02-08 05:11:00,
2013-02-07 23:22:00,33.0,30.0,-100.00,NW,310,5.0,16.0,88,-99.99,,,-99.99,,2013-02-08 05:22:00,
2013-02-07 23:32:00,33.0,30.0,-100.00,NW,315,8.0,15.0,89,-99.99,,,-99.99,,2013-02-08 05:32:00,
2013-02-07 23:42:00,33.0,30.0,-100.00,NW,315,8.0,15.0,89,-99.99,,,-99.99,,2013-02-08 05:42:00,
2013-02-07 23:52:00,33.0,30.0,-100.00,NW,315,6.0,13.0,89,-99.99,,,-99.99,,2013-02-08 05:52:00,